Tracking 20037 objects as of 17-Nov-2019
Live streaming from Space Station
objects crossing your sky now

ORBCOMM FM 32

Track ORBCOMM FM 32 now!
10-day predictions
ORBCOMM FM 32 is classified as:


NORAD ID: 25982
Int'l Code: 1999-065C
Perigee: 786.6 km
Apogee: 797.4 km
Inclination: 45.0 °
Period: 100.6 minutes
Semi major axis: 7163 km
RCS: 0.8421 m2 (medium)
Launch date: December 4, 1999
Source: ORBCOMM (ORB)
Launch site: AIR FORCE EASTERN TEST RANGE (AFETR)
aabbcc
Your satellite tracking list
Your tracking list is empty




NASA's NSSDC Master Catalog

Two Line Element Set (TLE):
1 25982U 99065C   19320.55143630 -.00000067 +00000-0 +27245-4 0  9995
2 25982 045.0190 330.9444 0007538 304.5779 055.4355 14.32049665042128
Source of the keplerian elements: AFSPC